FW1232 Weather Reports


time (UTC)temp
C
wind
direction
speed
KPH
gust
KPH
rain 1hr
cm
rain 24hr
cm
rain mn
cm
humidity
%
barometer
mb
20260509000100 21 271 1.6 4.8 0.00 0.00 0.00 49 1011.2
20260508234558 21 263 8.0 14.5 0.00 0.00 0.00 44 1011.0
20260508233057 22 265 9.7 12.9 0.00 0.00 0.00 43 1011.1
20260508231600 22 262 6.4 14.5 0.00 0.00 0.00 42 1011.2
20260508230126 22 239 6.4 12.9 0.00 0.00 0.00 38 1011.3
20260508224604 22 207 8.0 16.1 0.00 0.00 0.00 38 1011.4
20260508223058 22 232 9.7 17.7 0.00 0.00 0.00 38 1011.6
20260508221559 22 224 8.0 20.9 0.00 0.00 0.00 37 1011.5
20260508220121 22 239 8.0 19.3 0.00 0.00 0.00 36 1011.4
20260508214558 22 304 9.7 22.5 0.00 0.00 0.00 37 1011.5
20260508213100 22 239 8.0 19.3 0.00 0.00 0.00 36 1011.5
20260508211559 23 275 4.8 14.5 0.00 0.00 0.00 36 1011.5
20260508210059 22 219 8.0 19.3 0.00 0.00 0.00 37 1011.8
20260508204607 22 279 6.4 16.1 0.00 0.00 0.00 38 1011.8
20260508203058 21 139 9.7 22.5 0.00 0.00 0.00 35 1011.9
20260508201601 21 151 8.0 20.9 0.00 0.00 0.00 36 1011.9
20260508194601 21 207 9.7 19.3 0.00 0.00 0.00 35 1012.7
20260508193107 21 132 8.0 24.1 0.00 0.00 0.00 35 1012.8
20260508191600 20 122 12.9 22.5 0.00 0.00 0.00 36 1013.0
20260508190108 21 286 6.4 27.4 0.00 0.00 0.00 36 1013.5
20260508184610 20 146 11.3 25.7 0.00 0.00 0.00 37 1013.9
20260508183056 20 201 3.2 17.7 0.00 0.00 0.00 36 1014.1
20260508181610 20 109 8.0 22.5 0.00 0.00 0.00 38 1014.4
20260508180107 19 163 4.8 17.7 0.00 0.00 0.00 38 1014.6
20260508174614 20 19 1.6 6.4 0.00 0.00 0.00 40 1015.0
20260508173101 18 0 3.2 9.7 0.00 0.00 0.00 39 1015.2
20260508171558 18 344 1.6 12.9 0.00 0.00 0.00 42 1015.8
20260508170059 17 0 3.2 8.0 0.00 0.00 0.00 45 1015.8
20260508164556 17 26 8.0 19.3 0.00 0.00 0.00 47 1016.1
20260508163056 18 0 0.0 12.9 0.00 0.00 0.00 49 1016.3
20260508161558 17 0 1.6 6.4 0.00 0.00 0.00 50 1016.6
20260508160104 17 300 3.2 6.4 0.00 0.00 0.00 49 1017.1
20260508154559 17 271 6.4 12.9 0.00 0.00 0.00 52 1017.2
20260508153101 17 267 3.2 14.5 0.00 0.00 0.00 52 1017.3
20260508151558 16 230 4.8 16.1 0.00 0.00 0.00 53 1017.5
20260508150056 16 259 8.0 16.1 0.00 0.00 0.00 53 1017.5
20260508144607 15 299 1.6 6.4 0.00 0.00 0.00 63 1017.6
20260508143100 13 0 0.0 4.8 0.00 0.00 0.00 73 1017.7
20260508141601 13 5 0.0 3.2 0.00 0.00 0.00 75 1017.9
20260508140100 12 5 1.6 4.8 0.00 0.00 0.00 78 1017.9
20260508134616 11 22 0.0 1.6 0.00 0.00 0.00 82 1017.9
20260508133058 10 0 0.0 4.8 0.00 0.00 0.00 87 1017.7
20260508131557 9 0 3.2 6.4 0.00 0.00 0.00 90 1017.7
20260508130057 8 25 3.2 8.0 0.00 0.00 0.00 92 1017.7
20260508124557 8 46 3.2 6.4 0.00 0.00 0.00 92 1017.6
20260508123108 8 0 4.8 6.4 0.00 0.00 0.00 92 1017.5
20260508121559 8 0 0.0 3.2 0.00 0.00 0.00 94 1017.4
20260508120058 7 0 1.6 4.8 0.00 0.00 0.00 96 1017.3
20260508114558 6 111 1.6 4.8 0.00 0.00 0.00 97 1017.2
20260508113105 5 110 3.2 6.4 0.00 0.00 0.00 97 1017.3
20260508111557 5 110 3.2 6.4 0.00 0.00 0.00 96 1017.1
20260508110057 5 109 3.2 6.4 0.00 0.00 0.00 96 1016.8
20260508104606 5 0 0.0 6.4 0.00 0.00 0.00 96 1016.7
20260508103059 6 0 0.0 3.2 0.00 0.00 0.00 96 1016.8
20260508101559 6 106 3.2 9.7 0.00 0.00 0.00 96 1016.5
20260508100059 6 0 0.0 6.4 0.00 0.00 0.00 96 1016.4
20260508094615 6 101 6.4 9.7 0.00 0.00 0.00 95 1016.2
20260508093058 6 100 3.2 6.4 0.00 0.00 0.00 94 1016.2
20260508091605 6 99 4.8 9.7 0.00 0.00 0.00 91 1016.2
20260508090057 6 130 3.2 4.8 0.00 0.00 0.00 91 1016.1
20260508084558 6 138 1.6 9.7 0.00 0.00 0.00 91 1016.3
20260508083056 6 134 4.8 9.7 0.00 0.00 0.00 90 1016.5
20260508081618 6 111 3.2 6.4 0.00 0.00 0.00 90 1016.3
20260508080101 6 107 1.6 4.8 0.00 0.00 0.00 93 1016.5
20260508074558 6 107 3.2 6.4 0.00 0.00 0.00 92 1016.4
20260508073059 7 103 1.6 4.8 0.00 0.00 0.00 90 1016.4
20260508071559 7 102 1.6 6.4 0.00 0.00 0.00 89 1016.5
20260508070059 7 101 1.6 6.4 0.00 0.00 0.00 89 1016.5
20260508064558 7 95 0.0 6.4 0.00 0.00 0.00 90 1016.4
20260508063108 7 0 3.2 6.4 0.00 0.00 0.00 89 1016.5
20260508061559 8 86 1.6 6.4 0.00 0.00 0.00 91 1016.7
20260508054558 8 84 1.6 4.8 0.00 0.00 0.00 89 1016.7
20260508053058 8 84 0.0 4.8 0.00 0.00 0.00 86 1016.7
20260508051558 8 0 3.2 6.4 0.00 0.00 0.00 85 1016.7
20260508050058 8 82 1.6 6.4 0.00 0.00 0.00 84 1017.0
20260508044600 8 76 3.2 6.4 0.00 0.00 0.00 84 1016.8
20260508043103 8 0 0.0 0.0 0.00 0.00 0.00 87 1016.7
20260508041557 9 0 0.0 3.2 0.00 0.00 0.00 86 1016.5
20260508034559 10 38 1.6 4.8 0.00 0.00 0.00 85 1016.2
20260508033057 10 38 1.6 4.8 0.00 0.00 0.00 83 1016.1
20260508031557 10 0 0.0 4.8 0.00 0.00 0.00 82 1016.1
20260508030104 11 34 3.2 4.8 0.00 0.00 0.00 79 1016.1
20260508024606 11 0 0.0 0.0 0.00 0.00 0.00 77 1016.1
20260508023059 12 0 0.0 3.2 0.00 0.00 0.00 76 1015.9
20260508021559 12 30 0.0 3.2 0.00 0.00 0.00 73 1015.8
20260508020103 13 349 3.2 12.9 0.00 0.00 0.00 70 1015.7
20260508014559 13 0 0.0 0.0 0.00 0.00 0.00 71 1015.4
20260508013059 14 294 3.2 6.4 0.00 0.00 0.00 58 1014.9
20260508011557 15 290 4.8 8.0 0.00 0.00 0.00 57 1014.7
20260508010056 15 290 3.2 8.0 0.00 0.00 0.00 57 1014.6
20260508004603 15 303 4.8 9.7 0.00 0.20 0.00 54 1014.3
20260508003056 16 298 8.0 14.5 0.00 0.20 0.00 50 1014.2
20260508001559 16 275 11.3 22.5 0.00 0.20 0.00 50 1014.0